QPF
0.03 0.02 0.04 0.03 0.02 0.02 0.03 0.03 0.03 0.04 0.04 0.03 0.02 0.02 0.02 0.02 0.02 0.03 0.05 0.03 0.03 0.03 0.03 0.02 0.03 0.04 0.03 0.02 0.00 0.00 0.01 0.01 0.00 0.00 0.00 0.00 0.00 0.00 0.00 0.00 0.00 0.00 0.00
0.02 0.02 0.03 0.03 0.03 0.02 0.04 0.04 0.04 0.05 0.05 0.06 0.06 0.05 0.05 0.04 0.03 0.03 0.05 0.06 0.04 0.04 0.04 0.04 0.04 0.04 0.02 0.01 0.01 0.01 0.02 0.02 0.01 0.01 0.00 0.01 0.01 0.00 0.00 0.00 0.00 0.00 0.00
0.02 0.02 0.02 0.03 0.03 0.02 0.04 0.06 0.06 0.05 0.05 0.05 0.07 0.05 0.06 0.05 0.04 0.03 0.03 0.06 0.06 0.04 0.03 0.04 0.04 0.04 0.04 0.03 0.02 0.02 0.01 0.02 0.02 0.01 0.01 0.01 0.01 0.01 0.01 0.01 0.01 0.01 0.01
0.01 0.02 0.02 0.04 0.04 0.03 0.04 0.08 0.08 0.08 0.07 0.06 0.05 0.04 0.04 0.04 0.05 0.03 0.03 0.03 0.05 0.04 0.05 0.04 0.04 0.04 0.03 0.03 0.02 0.02 0.02 0.01 0.01 0.02 0.02 0.01 0.01 0.02 0.02 0.01 0.01 0.01 0.01
0.02 0.03 0.04 0.05 0.04 0.04 0.05 0.05 0.07 0.08 0.09 0.08 0.05 0.04 0.03 0.04 0.05 0.03 0.03 0.03 0.03 0.04 0.05 0.03 0.03 0.02 0.02 0.03 0.03 0.03 0.04 0.03 0.02 0.02 0.02 0.03 0.02 0.02 0.02 0.01 0.02 0.01 0.01
0.06 0.07 0.06 0.06 0.06 0.07 0.08 0.08 0.11 0.10 0.10 0.09 0.05 0.04 0.04 0.02 0.02 0.03 0.03 0.03 0.03 0.02 0.02 0.02 0.05 0.04 0.02 0.03 0.03 0.05 0.06 0.06 0.07 0.05 0.04 0.03 0.03 0.02 0.02 0.01 0.01 0.01 0.01
0.10 0.13 0.08 0.09 0.10 0.10 0.11 0.09 0.09 0.10 0.09 0.08 0.08 0.08 0.05 0.02 0.02 0.03 0.04 0.03 0.02 0.01 0.03 0.04 0.06 0.05 0.03 0.02 0.03 0.03 0.06 0.08 0.08 0.07 0.06 0.04 0.03 0.02 0.01 0.01 0.01 0.01 0.01
0.09 0.08 0.08 0.08 0.11 0.13 0.12 0.10 0.10 0.11 0.10 0.09 0.10 0.10 0.07 0.05 0.03 0.02 0.03 0.03 0.02 0.02 0.02 0.03 0.04 0.05 0.04 0.04 0.02 0.01 0.02 0.04 0.06 0.07 0.06 0.05 0.03 0.02 0.02 0.02 0.01 0.01 0.01
0.05 0.05 0.06 0.07 0.10 0.11 0.11 0.14 0.12 0.11 0.11 0.10 0.12 0.12 0.09 0.08 0.06 0.04 0.02 0.01 0.03 0.03 0.02 0.03 0.03 0.03 0.03 0.04 0.04 0.03 0.01 0.01 0.02 0.04 0.06 0.06 0.04 0.03 0.02 0.02 0.02 0.02 0.01
0.06 0.07 0.07 0.08 0.11 0.12 0.12 0.12 0.10 0.11 0.12 0.11 0.11 0.08 0.08 0.07 0.07 0.07 0.05 0.02 0.02 0.02 0.03 0.02 0.03 0.02 0.01 0.03 0.05 0.02 0.01 0.00 0.01 0.02 0.03 0.05 0.04 0.03 0.03 0.02 0.02 0.02 0.01
0.08 0.09 0.09 0.09 0.11 0.12 0.13 0.12 0.10 0.10 0.10 0.09 0.09 0.07 0.07 0.05 0.04 0.05 0.07 0.04 0.02 0.01 0.01 0.01 0.02 0.02 0.02 0.03 0.05 0.02 0.01 0.00 0.00 0.01 0.02 0.04 0.06 0.06 0.04 0.03 0.03 0.03 0.03
0.07 0.08 0.11 0.10 0.11 0.10 0.10 0.12 0.11 0.09 0.09 0.09 0.08 0.07 0.06 0.06 0.05 0.06 0.06 0.05 0.04 0.01 0.00 0.01 0.01 0.01 0.02 0.01 0.01 0.02 0.01 0.01 0.01 0.01 0.01 0.03 0.05 0.05 0.05 0.04 0.04 0.04 0.05
0.05 0.06 0.07 0.09 0.09 0.09 0.09 0.12 0.12 0.10 0.09 0.10 0.10 0.09 0.07 0.06 0.06 0.07 0.07 0.06 0.06 0.02 0.01 0.00 0.00 0.01 0.01 0.01 0.03 0.02 0.01 0.01 0.01 0.02 0.02 0.02 0.03 0.03 0.03 0.03 0.04 0.06 0.06
0.06 0.06 0.06 0.06 0.07 0.07 0.07 0.09 0.09 0.08 0.09 0.09 0.08 0.10 0.09 0.07 0.07 0.09 0.09 0.10 0.08 0.05 0.03 0.02 0.01 0.01 0.00 0.01 0.02 0.02 0.02 0.02 0.02 0.02 0.02 0.02 0.02 0.02 0.02 0.02 0.02 0.03 0.04
0.05 0.04 0.05 0.06 0.05 0.05 0.08 0.08 0.06 0.06 0.10 0.09 0.07 0.09 0.10 0.09 0.10 0.09 0.08 0.09 0.09 0.07 0.05 0.04 0.03 0.02 0.01 0.02 0.02 0.02 0.02 0.03 0.02 0.03 0.03 0.03 0.02 0.02 0.01 0.01 0.01 0.01 0.01
0.04 0.04 0.05 0.04 0.06 0.08 0.10 0.07 0.05 0.07 0.08 0.07 0.09 0.09 0.09 0.09 0.11 0.11 0.09 0.08 0.09 0.10 0.07 0.03 0.03 0.02 0.04 0.04 0.02 0.02 0.03 0.03 0.03 0.04 0.04 0.04 0.03 0.02 0.02 0.01 0.01 0.01 0.01
0.04 0.04 0.05 0.05 0.07 0.07 0.06 0.07 0.06 0.06 0.06 0.06 0.06 0.06 0.07 0.10 0.12 0.11 0.11 0.10 0.11 0.12 0.09 0.05 0.03 0.05 0.06 0.06 0.05 0.04 0.04 0.05 0.04 0.04 0.04 0.03 0.03 0.02 0.02 0.02 0.02 0.01 0.01
0.05 0.05 0.06 0.05 0.05 0.05 0.04 0.05 0.04 0.04 0.05 0.05 0.05 0.06 0.07 0.10 0.11 0.10 0.12 0.12 0.11 0.12 0.10 0.09 0.08 0.07 0.09 0.10 0.08 0.07 0.05 0.05 0.05 0.05 0.05 0.04 0.03 0.03 0.02 0.02 0.02 0.01 0.01
0.05 0.05 0.06 0.05 0.05 0.05 0.04 0.04 0.04 0.06 0.06 0.05 0.06 0.07 0.07 0.09 0.09 0.10 0.11 0.10 0.10 0.11 0.10 0.10 0.10 0.12 0.11 0.10 0.11 0.10 0.08 0.09 0.05 0.04 0.04 0.04 0.03 0.02 0.02 0.01 0.01 0.01 0.01
0.06 0.06 0.06 0.07 0.06 0.06 0.05 0.05 0.04 0.04 0.06 0.06 0.06 0.06 0.07 0.09 0.09 0.10 0.10 0.10 0.12 0.13 0.13 0.12 0.11 0.09 0.09 0.09 0.09 0.08 0.07 0.07 0.05 0.04 0.05 0.04 0.04 0.03 0.03 0.02 0.01 0.01 0.01
0.07 0.06 0.07 0.07 0.06 0.05 0.05 0.06 0.04 0.05 0.07 0.08 0.07 0.06 0.07 0.07 0.08 0.09 0.08 0.11 0.14 0.15 0.14 0.12 0.10 0.08 0.07 0.08 0.08 0.07 0.07 0.07 0.07 0.06 0.07 0.06 0.05 0.05 0.04 0.03 0.02 0.02 0.01
0.05 0.05 0.05 0.05 0.04 0.03 0.03 0.03 0.03 0.04 0.06 0.07 0.08 0.09 0.09 0.07 0.07 0.08 0.08 0.09 0.10 0.11 0.12 0.13 0.12 0.09 0.08 0.07 0.08 0.10 0.11 0.11 0.09 0.07 0.09 0.07 0.06 0.05 0.04 0.03 0.03 0.03 0.03
0.07 0.06 0.05 0.04 0.03 0.02 0.01 0.01 0.02 0.03 0.05 0.08 0.10 0.11 0.10 0.10 0.12 0.12 0.13 0.11 0.10 0.10 0.10 0.10 0.10 0.09 0.10 0.10 0.10 0.10 0.10 0.10 0.09 0.08 0.11 0.10 0.09 0.08 0.06 0.04 0.05 0.05 0.04
0.05 0.04 0.04 0.03 0.02 0.02 0.01 0.01 0.03 0.03 0.03 0.04 0.06 0.08 0.10 0.12 0.13 0.13 0.12 0.11 0.09 0.09 0.09 0.09 0.09 0.09 0.09 0.09 0.08 0.08 0.09 0.09 0.08 0.08 0.10 0.10 0.09 0.09 0.07 0.07 0.07 0.06 0.06
0.03 0.03 0.02 0.03 0.02 0.02 0.02 0.02 0.03 0.03 0.03 0.03 0.04 0.05 0.06 0.08 0.09 0.09 0.08 0.08 0.08 0.08 0.08 0.08 0.08 0.07 0.08 0.08 0.08 0.07 0.08 0.10 0.11 0.11 0.13 0.13 0.12 0.11 0.10 0.09 0.07 0.08 0.08
0.05 0.05 0.04 0.04 0.04 0.04 0.05 0.03 0.03 0.03 0.03 0.04 0.04 0.05 0.06 0.07 0.08 0.07 0.06 0.07 0.07 0.08 0.08 0.08 0.09 0.09 0.09 0.10 0.11 0.10 0.11 0.12 0.13 0.12 0.11 0.12 0.12 0.13 0.14 0.12 0.11 0.10 0.10
MSLP
1018.39 1018.57 1018.70 1018.79 1018.85 1018.91 1018.96 1019.03 1019.10 1019.15 1019.17 1019.16 1019.14 1019.11 1019.13 1019.21 1019.40 1019.68 1020.06 1020.48 1020.92 1021.31 1021.64 1021.87 1022.01 1022.07 1022.10 1022.13 1022.18 1022.26 1022.37 1022.50 1022.64 1022.76 1022.86 1022.93 1022.99 1023.04 1023.10 1023.17 1023.25 1023.33 1023.41
1018.53 1018.71 1018.84 1018.92 1018.98 1019.04 1019.09 1019.16 1019.23 1019.29 1019.33 1019.34 1019.33 1019.31 1019.31 1019.36 1019.48 1019.69 1019.98 1020.33 1020.70 1021.06 1021.38 1021.63 1021.82 1021.95 1022.05 1022.14 1022.22 1022.32 1022.44 1022.56 1022.68 1022.78 1022.87 1022.94 1023.00 1023.06 1023.12 1023.20 1023.28 1023.36 1023.44
1018.63 1018.81 1018.94 1019.04 1019.11 1019.17 1019.24 1019.31 1019.40 1019.47 1019.52 1019.54 1019.54 1019.51 1019.48 1019.47 1019.52 1019.63 1019.82 1020.07 1020.36 1020.67 1020.97 1021.25 1021.48 1021.69 1021.86 1022.00 1022.14 1022.27 1022.39 1022.51 1022.61 1022.70 1022.77 1022.84 1022.90 1022.98 1023.06 1023.15 1023.25 1023.35 1023.43
1018.65 1018.83 1018.98 1019.09 1019.18 1019.27 1019.35 1019.45 1019.54 1019.63 1019.69 1019.72 1019.71 1019.66 1019.59 1019.53 1019.49 1019.51 1019.59 1019.73 1019.93 1020.18 1020.45 1020.73 1021.00 1021.25 1021.49 1021.70 1021.88 1022.05 1022.19 1022.30 1022.40 1022.47 1022.54 1022.61 1022.69 1022.78 1022.89 1023.01 1023.14 1023.26 1023.37
1018.57 1018.76 1018.92 1019.06 1019.18 1019.29 1019.40 1019.52 1019.63 1019.72 1019.79 1019.82 1019.80 1019.74 1019.64 1019.52 1019.41 1019.33 1019.31 1019.35 1019.45 1019.62 1019.84 1020.10 1020.38 1020.67 1020.95 1021.20 1021.44 1021.63 1021.80 1021.92 1022.03 1022.11 1022.18 1022.26 1022.36 1022.47 1022.61 1022.77 1022.93 1023.08 1023.22
1018.38 1018.58 1018.77 1018.94 1019.09 1019.23 1019.37 1019.50 1019.62 1019.73 1019.80 1019.83 1019.81 1019.73 1019.61 1019.46 1019.29 1019.14 1019.03 1018.97 1018.98 1019.06 1019.21 1019.42 1019.68 1019.96 1020.25 1020.54 1020.80 1021.03 1021.23 1021.39 1021.51 1021.61 1021.71 1021.81 1021.93 1022.07 1022.23 1022.42 1022.61 1022.79 1022.95
1018.10 1018.31 1018.52 1018.72 1018.91 1019.09 1019.26 1019.41 1019.54 1019.65 1019.72 1019.75 1019.73 1019.66 1019.53 1019.37 1019.17 1018.97 1018.79 1018.65 1018.56 1018.54 1018.60 1018.73 1018.93 1019.17 1019.45 1019.74 1020.02 1020.28 1020.52 1020.71 1020.88 1021.02 1021.15 1021.28 1021.42 1021.59 1021.77 1021.97 1022.17 1022.37 1022.55
1017.78 1017.99 1018.22 1018.46 1018.68 1018.89 1019.08 1019.24 1019.38 1019.49 1019.56 1019.60 1019.59 1019.53 1019.42 1019.26 1019.06 1018.84 1018.61 1018.40 1018.22 1018.10 1018.05 1018.07 1018.17 1018.34 1018.57 1018.84 1019.13 1019.42 1019.70 1019.95 1020.17 1020.36 1020.54 1020.70 1020.87 1021.05 1021.23 1021.43 1021.63 1021.83 1022.01
1017.45 1017.66 1017.90 1018.16 1018.41 1018.64 1018.85 1019.02 1019.16 1019.26 1019.33 1019.37 1019.38 1019.34 1019.26 1019.13 1018.95 1018.73 1018.48 1018.21 1017.96 1017.73 1017.56 1017.46 1017.44 1017.52 1017.67 1017.90 1018.18 1018.49 1018.80 1019.11 1019.39 1019.65 1019.87 1020.08 1020.27 1020.45 1020.63 1020.81 1020.99 1021.17 1021.34
1017.12 1017.32 1017.56 1017.83 1018.10 1018.35 1018.57 1018.74 1018.87 1018.97 1019.03 1019.07 1019.09 1019.08 1019.04 1018.95 1018.81 1018.61 1018.35 1018.05 1017.73 1017.41 1017.12 1016.89 1016.74 1016.70 1016.77 1016.94 1017.19 1017.50 1017.85 1018.21 1018.55 1018.87 1019.15 1019.39 1019.60 1019.78 1019.95 1020.11 1020.26 1020.42 1020.57
1016.79 1016.97 1017.22 1017.49 1017.76 1018.01 1018.22 1018.38 1018.50 1018.57 1018.62 1018.66 1018.69 1018.71 1018.71 1018.67 1018.58 1018.41 1018.17 1017.85 1017.48 1017.08 1016.68 1016.33 1016.07 1015.91 1015.88 1015.98 1016.19 1016.49 1016.85 1017.24 1017.64 1018.00 1018.33 1018.61 1018.84 1019.03 1019.18 1019.32 1019.45 1019.59 1019.72
1016.46 1016.62 1016.85 1017.11 1017.37 1017.61 1017.80 1017.94 1018.02 1018.07 1018.10 1018.13 1018.16 1018.21 1018.24 1018.25 1018.21 1018.08 1017.87 1017.55 1017.15 1016.70 1016.22 1015.78 1015.40 1015.14 1015.01 1015.02 1015.18 1015.45 1015.80 1016.21 1016.63 1017.03 1017.39 1017.69 1017.94 1018.15 1018.31 1018.44 1018.56 1018.69 1018.83
1016.12 1016.26 1016.46 1016.70 1016.94 1017.14 1017.30 1017.40 1017.45 1017.46 1017.46 1017.47 1017.50 1017.55 1017.62 1017.67 1017.67 1017.59 1017.41 1017.12 1016.72 1016.24 1015.72 1015.20 1014.74 1014.38 1014.16 1014.10 1014.18 1014.40 1014.72 1015.11 1015.52 1015.93 1016.30 1016.63 1016.90 1017.12 1017.30 1017.45 1017.59 1017.73 1017.89
1015.77 1015.89 1016.07 1016.28 1016.48 1016.64 1016.76 1016.81 1016.81 1016.78 1016.74 1016.72 1016.73 1016.79 1016.86 1016.94 1016.99 1016.95 1016.82 1016.56 1016.18 1015.70 1015.16 1014.61 1014.09 1013.67 1013.37 1013.22 1013.23 1013.37 1013.62 1013.96 1014.33 1014.71 1015.07 1015.40 1015.68 1015.93 1016.14 1016.33 1016.52 1016.70 1016.90
1015.44 1015.56 1015.72 1015.89 1016.05 1016.17 1016.23 1016.23 1016.18 1016.10 1016.01 1015.95 1015.94 1015.98 1016.06 1016.15 1016.22 1016.22 1016.13 1015.91 1015.56 1015.11 1014.58 1014.02 1013.48 1013.01 1012.65 1012.42 1012.34 1012.39 1012.55 1012.80 1013.09 1013.41 1013.73 1014.03 1014.32 1014.58 1014.84 1015.08 1015.33 1015.58 1015.83
1015.18 1015.30 1015.45 1015.60 1015.72 1015.80 1015.81 1015.76 1015.65 1015.52 1015.39 1015.29 1015.24 1015.25 1015.30 1015.39 1015.46 1015.49 1015.42 1015.23 1014.93 1014.51 1014.01 1013.46 1012.92 1012.43 1012.02 1011.72 1011.55 1011.50 1011.54 1011.67 1011.86 1012.08 1012.32 1012.57 1012.83 1013.11 1013.39 1013.69 1014.00 1014.32 1014.65
1015.02 1015.17 1015.32 1015.45 1015.56 1015.60 1015.57 1015.48 1015.33 1015.15 1014.97 1014.82 1014.73 1014.69 1014.72 1014.77 1014.83 1014.84 1014.78 1014.61 1014.34 1013.95 1013.48 1012.96 1012.43 1011.93 1011.49 1011.14 1010.88 1010.71 1010.63 1010.62 1010.67 1010.76 1010.89 1011.06 1011.27 1011.52 1011.82 1012.15 1012.53 1012.92 1013.32
1014.98 1015.17 1015.34 1015.48 1015.58 1015.61 1015.56 1015.44 1015.25 1015.04 1014.82 1014.62 1014.48 1014.39 1014.36 1014.37 1014.38 1014.36 1014.27 1014.10 1013.83 1013.47 1013.02 1012.53 1012.01 1011.50 1011.04 1010.64 1010.30 1010.03 1009.82 1009.66 1009.56 1009.50 1009.50 1009.56 1009.68 1009.88 1010.16 1010.51 1010.91 1011.37 1011.84
1015.04 1015.28 1015.49 1015.66 1015.77 1015.80 1015.75 1015.61 1015.42 1015.18 1014.93 1014.70 1014.51 1014.37 1014.27 1014.21 1014.15 1014.07 1013.93 1013.72 1013.43 1013.06 1012.62 1012.13 1011.62 1011.12 1010.64 1010.19 1009.78 1009.42 1009.09 1008.80 1008.54 1008.33 1008.18 1008.11 1008.12 1008.24 1008.46 1008.79 1009.21 1009.69 1010.22
1015.16 1015.46 1015.72 1015.92 1016.06 1016.11 1016.07 1015.95 1015.75 1015.51 1015.25 1014.99 1014.76 1014.57 1014.41 1014.27 1014.13 1013.96 1013.75 1013.47 1013.13 1012.72 1012.26 1011.76 1011.24 1010.73 1010.23 1009.75 1009.29 1008.85 1008.42 1008.01 1007.62 1007.26 1006.96 1006.75 1006.64 1006.65 1006.79 1007.07 1007.47 1007.97 1008.53
1015.29 1015.64 1015.95 1016.20 1016.37 1016.45 1016.44 1016.34 1016.16 1015.93 1015.67 1015.40 1015.15 1014.91 1014.69 1014.48 1014.25 1013.99 1013.69 1013.33 1012.91 1012.44 1011.93 1011.40 1010.86 1010.33 1009.80 1009.30 1008.79 1008.29 1007.79 1007.28 1006.77 1006.30 1005.87 1005.52 1005.28 1005.18 1005.24 1005.45 1005.81 1006.29 1006.87
1015.38 1015.77 1016.12 1016.40 1016.61 1016.73 1016.74 1016.67 1016.53 1016.32 1016.08 1015.82 1015.55 1015.29 1015.03 1014.76 1014.46 1014.12 1013.72 1013.27 1012.76 1012.21 1011.64 1011.05 1010.47 1009.90 1009.35 1008.82 1008.28 1007.74 1007.19 1006.61 1006.03 1005.46 1004.93 1004.48 1004.13 1003.93 1003.89 1004.02 1004.33 1004.79 1005.38
1015.43 1015.84 1016.21 1016.52 1016.75 1016.89 1016.93 1016.89 1016.77 1016.60 1016.38 1016.15 1015.89 1015.63 1015.35 1015.04 1014.69 1014.28 1013.81 1013.28 1012.69 1012.06 1011.40 1010.75 1010.11 1009.50 1008.92 1008.35 1007.80 1007.23 1006.65 1006.04 1005.41 1004.79 1004.20 1003.67 1003.24 1002.96 1002.84 1002.91 1003.16 1003.59 1004.16
1015.47 1015.88 1016.25 1016.56 1016.79 1016.94 1017.00 1016.98 1016.89 1016.74 1016.56 1016.35 1016.13 1015.88 1015.61 1015.29 1014.92 1014.47 1013.95 1013.36 1012.70 1012.00 1011.28 1010.56 1009.86 1009.20 1008.57 1007.98 1007.40 1006.82 1006.23 1005.62 1004.98 1004.34 1003.72 1003.16 1002.69 1002.36 1002.18 1002.19 1002.40 1002.78 1003.34
1015.58 1015.96 1016.31 1016.61 1016.82 1016.96 1017.01 1016.99 1016.91 1016.79 1016.63 1016.46 1016.26 1016.05 1015.80 1015.50 1015.14 1014.68 1014.14 1013.52 1012.82 1012.07 1011.30 1010.53 1009.78 1009.07 1008.41 1007.78 1007.19 1006.60 1006.02 1005.41 1004.79 1004.17 1003.56 1003.00 1002.53 1002.17 1001.96 1001.94 1002.10 1002.44 1002.95
1015.84 1016.19 1016.50 1016.76 1016.94 1017.04 1017.07 1017.03 1016.95 1016.82 1016.68 1016.53 1016.36 1016.18 1015.97 1015.70 1015.36 1014.93 1014.40 1013.78 1013.07 1012.31 1011.51 1010.70 1009.92 1009.17 1008.48 1007.83 1007.22 1006.64 1006.06 1005.48 1004.89 1004.31 1003.74 1003.21 1002.75 1002.40 1002.19 1002.13 1002.25 1002.55 1003.00
Thickness
5757 5755 5752 5751 5752 5751 5749 5749 5749 5748 5748 5747 5748 5748 5748 5747 5746 5744 5739 5734 5731 5729 5728 5726 5724 5723 5721 5720 5718 5717 5716 5715 5713 5712 5711 5710 5709 5707 5706 5705 5704 5703 5702
5756 5755 5752 5751 5751 5750 5750 5749 5749 5747 5747 5747 5747 5747 5747 5746 5745 5743 5741 5736 5732 5730 5728 5726 5725 5723 5722 5720 5719 5717 5716 5714 5713 5712 5711 5709 5708 5707 5706 5705 5704 5702 5701
5755 5754 5754 5752 5751 5749 5747 5746 5746 5747 5747 5747 5747 5746 5746 5745 5745 5743 5741 5739 5736 5731 5729 5727 5726 5724 5723 5721 5719 5718 5716 5715 5713 5712 5711 5710 5708 5707 5706 5705 5703 5702 5701
5755 5753 5754 5753 5750 5749 5748 5746 5746 5746 5747 5747 5746 5747 5746 5744 5744 5743 5742 5740 5739 5738 5732 5729 5727 5725 5724 5722 5721 5719 5717 5716 5714 5713 5711 5710 5709 5708 5706 5705 5704 5702 5702
5754 5754 5754 5752 5749 5749 5749 5749 5747 5746 5745 5745 5746 5746 5747 5746 5744 5744 5743 5742 5740 5738 5738 5732 5730 5728 5726 5724 5723 5721 5719 5717 5715 5714 5712 5711 5710 5708 5707 5705 5704 5703 5702
5754 5753 5752 5750 5750 5749 5748 5747 5745 5744 5744 5744 5747 5746 5746 5747 5746 5746 5745 5745 5742 5741 5740 5738 5734 5731 5729 5727 5725 5723 5721 5719 5717 5716 5714 5713 5711 5710 5708 5707 5705 5704 5703
5755 5752 5754 5751 5749 5749 5747 5747 5745 5744 5743 5744 5742 5741 5745 5748 5748 5747 5747 5748 5747 5744 5742 5740 5738 5737 5735 5730 5728 5726 5724 5722 5720 5718 5716 5715 5713 5712 5710 5708 5707 5705 5704
5756 5755 5753 5752 5750 5748 5747 5746 5744 5744 5744 5745 5741 5737 5737 5742 5746 5751 5750 5748 5748 5747 5745 5743 5740 5738 5738 5737 5734 5730 5727 5725 5723 5721 5719 5717 5716 5714 5712 5710 5708 5707 5705
5757 5756 5754 5753 5751 5750 5748 5746 5745 5743 5742 5745 5745 5739 5734 5734 5741 5749 5750 5750 5749 5747 5747 5746 5743 5741 5739 5738 5737 5733 5730 5728 5725 5723 5721 5719 5717 5716 5714 5712 5710 5708 5707
5758 5756 5754 5752 5751 5750 5749 5748 5748 5746 5743 5742 5744 5744 5742 5742 5736 5738 5746 5751 5750 5748 5748 5749 5748 5745 5742 5740 5738 5735 5733 5730 5728 5726 5724 5722 5720 5718 5715 5713 5712 5710 5708
5758 5757 5755 5753 5751 5751 5750 5748 5748 5746 5746 5745 5744 5744 5743 5742 5741 5737 5737 5744 5749 5752 5752 5751 5749 5748 5746 5743 5741 5739 5736 5733 5730 5728 5725 5723 5721 5719 5717 5715 5713 5712 5710
5760 5759 5757 5755 5753 5752 5750 5749 5748 5747 5746 5746 5746 5746 5744 5742 5741 5741 5739 5740 5744 5750 5753 5753 5751 5750 5748 5746 5744 5741 5738 5734 5731 5729 5727 5724 5723 5721 5719 5717 5715 5713 5711
5762 5760 5759 5756 5754 5753 5751 5750 5748 5748 5747 5746 5745 5746 5747 5747 5746 5744 5740 5741 5742 5748 5750 5752 5752 5751 5749 5747 5745 5741 5738 5735 5732 5730 5727 5725 5723 5722 5720 5718 5716 5714 5712
5763 5761 5759 5757 5755 5754 5753 5751 5750 5749 5748 5747 5747 5746 5745 5747 5747 5745 5741 5738 5736 5740 5744 5746 5751 5750 5748 5747 5744 5740 5738 5735 5733 5730 5728 5726 5724 5722 5720 5717 5716 5714 5712
5762 5760 5758 5757 5755 5754 5753 5751 5751 5750 5749 5748 5748 5747 5745 5747 5747 5746 5745 5741 5735 5731 5734 5742 5744 5747 5745 5744 5741 5738 5737 5735 5733 5730 5728 5725 5723 5721 5719 5717 5715 5713 5711
5760 5759 5757 5756 5755 5754 5752 5751 5750 5750 5748 5748 5747 5746 5745 5746 5745 5744 5742 5741 5738 5733 5732 5740 5741 5744 5742 5741 5738 5736 5734 5733 5731 5729 5727 5724 5722 5720 5718 5716 5714 5712 5710
5758 5757 5756 5754 5753 5752 5752 5750 5750 5749 5748 5747 5747 5746 5745 5744 5742 5742 5741 5739 5736 5733 5730 5736 5740 5741 5737 5735 5735 5733 5732 5731 5731 5729 5726 5723 5721 5718 5716 5714 5712 5710 5708
5757 5755 5754 5753 5752 5751 5750 5749 5748 5748 5747 5746 5745 5745 5744 5743 5742 5740 5739 5737 5736 5734 5731 5729 5733 5734 5733 5732 5731 5729 5730 5730 5729 5728 5725 5721 5719 5716 5713 5711 5709 5707 5706
5754 5754 5752 5751 5749 5749 5748 5747 5746 5745 5745 5745 5744 5743 5742 5740 5738 5738 5736 5735 5734 5735 5732 5729 5729 5729 5729 5728 5726 5725 5726 5725 5726 5725 5722 5719 5716 5713 5711 5709 5707 5705 5703
5752 5751 5750 5748 5747 5746 5745 5744 5743 5742 5742 5741 5741 5740 5739 5737 5735 5734 5733 5732 5731 5729 5728 5725 5724 5724 5722 5723 5720 5719 5719 5721 5720 5721 5719 5717 5713 5710 5708 5706 5703 5701 5699
5749 5747 5746 5744 5743 5741 5740 5739 5739 5740 5738 5737 5736 5736 5735 5733 5731 5729 5730 5728 5726 5723 5722 5720 5719 5718 5717 5715 5714 5715 5714 5714 5714 5714 5713 5713 5711 5708 5705 5701 5698 5696 5694
5744 5742 5741 5739 5737 5736 5732 5731 5732 5734 5733 5731 5729 5729 5729 5728 5726 5723 5721 5720 5718 5717 5716 5714 5713 5710 5710 5710 5709 5709 5708 5706 5704 5708 5704 5704 5706 5704 5702 5699 5695 5692 5688
5738 5736 5735 5733 5730 5727 5725 5725 5725 5727 5726 5724 5722 5721 5722 5722 5719 5718 5716 5713 5711 5710 5708 5708 5706 5703 5702 5702 5701 5700 5699 5697 5695 5696 5695 5693 5695 5694 5693 5691 5688 5685 5682
5732 5729 5727 5726 5723 5721 5719 5718 5718 5720 5719 5717 5715 5714 5713 5711 5711 5709 5709 5707 5704 5703 5701 5700 5698 5696 5694 5693 5693 5693 5692 5690 5688 5688 5686 5683 5685 5683 5684 5681 5678 5676 5673
5725 5722 5720 5719 5717 5715 5712 5712 5711 5713 5711 5709 5707 5705 5703 5702 5699 5699 5700 5697 5695 5693 5691 5689 5687 5685 5683 5682 5682 5684 5683 5681 5679 5679 5677 5674 5674 5673 5673 5671 5668 5665 5662
5718 5716 5714 5712 5710 5708 5704 5704 5704 5707 5704 5701 5698 5695 5691 5690 5688 5688 5689 5687 5683 5681 5681 5681 5678 5676 5675 5674 5672 5671 5671 5668 5667 5666 5665 5662 5661 5659 5659 5661 5659 5656 5652